Regional Weather Roundup
Issued by NWS

Home | Current Version | Previous Version | Text Only | Print | Product List | Glossary On
Versions: 1 2 3 4 5 6 7 8 9 10 11 12 13 14 15 16 17 18 19 20 21 22 23 24 25 26 27 28 29 30 31 32 33 34 35 36 37 38 39 40 41 42 43 44 45 46 47 48 49 50
000
ASUS43 KBIS 272120
RWRND

NORTH DAKOTA REGIONAL WEATHER ROUNDUP
NATIONAL WEATHER SERVICE BISMARCK ND
300 PM CST THU NOV 27 2014

NOTE: "FAIR" INDICATES FEW OR NO CLOUDS BELOW 12,000 FEET WITH NO
SIGNIFICANT WEATHER AND/OR OBSTRUCTIONS TO VISIBILITY.


NDZ001>003-009>011-017-272200-
NORTHWEST NORTH DAKOTA

CITY           SKY/WX    TMP DP  RH WIND       PRES   REMARKS
WILLISTON      CLOUDY    21  16  81 SE15G21   29.87F WCI   8
MINOT          LGT SNOW  13   8  81 SE14      30.04F VSB 1   WCI  -2
MINOT AFB      LGT SNOW  12  10  92 SE15      30.02F FOG     WCI  -4
$$

NDZ018>021-031>035-040>046-272200-
SOUTHWEST NORTH DAKOTA

CITY           SKY/WX    TMP DP  RH WIND       PRES   REMARKS
BISMARCK       LGT SNOW  12   7  80 SE14      30.09F VSB 1   WCI  -3
DICKINSON      CLOUDY    24  20  84 S21       29.84F WCI   9
GARRISON         N/A     12   9  87 SE15      30.00F WCI  -4
HETTINGER ARPT CLOUDY    22  18  85 S15       29.92F WCI   9
$$

NDZ004>008-012>016-024-026-027-054-272200-
NORTHEAST NORTH DAKOTA

CITY           SKY/WX    TMP DP  RH WIND       PRES   REMARKS
GRAND FORKS    CLOUDY     5  -4  66 SE14      30.32F WCI -12
GRND FRKS AFB  PTSUNNY    6  -3  66 S12       30.31F WCI -10
DEVILS LAKE    CLOUDY     7  -8  51 SE14      30.15F WCI -10
$$

NDZ022-023-025-028>030-036>039-047>053-272200-
SOUTHEAST NORTH DAKOTA

CITY           SKY/WX    TMP DP  RH WIND       PRES   REMARKS
FARGO          PTSUNNY    7  -4  60 S13       30.34F WCI  -9
JAMESTOWN      CLOUDY     4  -5  66 S14       30.19F WCI -14
$$



USA.gov is the U.S. government's official web portal to all federal, state and local government web resources and services.